User: anonymous   Login
Location: Unspecified
(0.0000°N, 0.0000°E)
Time: 22:07:22
(UTC+02:00)
Language:

Cosmos 773 Rocket - Orbit

View from above orbital plane
View from above orbital plane
View from above satellite
View from above satellite

Ground track
Ground track

The orbit data is extracted from the following two-line orbital elements,

1  8344U 75094B   16147.95992134 -.00000003 +00000-0 +76187-5 0  9993
2  8344 074.0561 117.2864 0020786 117.1047 243.2231 14.39053270129864
Epoch (UTC): 26 May 2016 23:02:17
Eccentricity: 0.0020786
inclination: 74.0561°
perigee height: 747 km
apogee height: 776 km
right ascension of ascending node: 117.2864°
argument of perigee: 117.1047°
revolutions per day: 14.39053270
mean anomaly at epoch: 243.2231°
orbit number at epoch: 12986

The dashed part of the orbit path shows where the satellite is in the earth's shadow,  

DLR